Home > Weather > Kuching > Past weeks

Flag for Malaysia Past Weather in Kuching, Malaysia — Yesterday and Last 2 Weeks

Now
91 °F

Broken clouds.


Feels Like: 108 °F
Forecast: 80 / 92 °F
Wind: 5 mph from East

Location: Kuching Airport

Current Time: May 25, 2016 at 1:30:55 PM

Latest Report: May 25, 2016 at 1:00 PM


Visibility: N/A

Pressure: 29.80 "Hg

Humidity: 67%

Dew Point: 79 °F

Location of KuchingLocation

Past Weather in Kuching — Graph

°F

Kuching Temperature Yesterday

Maximum temperature yesterday: 93 °F (at 1:00 PM)
Minimum temperature yesterday: 75 °F (at 2:30 AM)
Average temperature yesterday: 81 °F

High & Low Weather Summary for the Past Weeks

 TemperatureHumidityPressure
High93 °F (May 10, 12:30 PM)100% (May 13, 3:30 AM)29.92 "Hg (May 13, 3:30 AM)
Low73 °F (May 20, 6:30 AM)55% (May 10, 6:00 PM)29.65 "Hg (May 13, 4:30 PM)
Average81 °F85%29.80 "Hg
* Reported May 10 12:00 PM — May 25 12:30 PM, Kuching, Weather by CustomWeather, © 2016

Note: Actual official high and low records may vary slightly from our data, if they occured in-between our weather recording intervals... More about our weather records

Advertising

Kuching Weather History for the Previous 24 Hours

Scroll right to see more
 ConditionsComfort  
Time TempWeatherWind HumidityBarometerVisibility
12:30 PM
Wed, May 25
91 °FBroken clouds.3 mph67%29.80 "HgN/A
12:00 PM90 °FPartly sunny.5 mph71%29.83 "HgN/A
11:30 AM88 °FPartly sunny.3 mph70%29.83 "HgN/A
11:00 AM88 °FPartly sunny.6 mph70%29.83 "HgN/A
10:30 AM88 °FPartly sunny.6 mph70%29.86 "HgN/A
10:00 AM86 °FPartly sunny.3 mph75%29.86 "HgN/A
9:30 AM84 °FPartly sunny.3 mph79%29.86 "HgN/A
9:00 AM82 °FPartly sunny.3 mph79%29.86 "HgN/A
8:30 AM81 °FPartly sunny.1 mph84%29.83 "HgN/A
8:00 AM77 °FPartly sunny.1 mph89%29.83 "HgN/A
7:30 AM75 °FPartly sunny.1 mph94%29.83 "HgN/A
7:00 AM75 °FBroken clouds.1 mph94%29.83 "HgN/A
6:30 AM73 °FPartly sunny.No wind100%29.83 "HgN/A
6:00 AM73 °FPartly cloudy.1 mph100%29.80 "HgN/A
5:30 AM73 °FPassing clouds.2 mph100%29.80 "HgN/A
5:00 AM75 °FPassing clouds.No wind94%29.80 "HgN/A
4:30 AM75 °FPassing clouds.1 mph94%29.80 "HgN/A
4:00 AM75 °FPassing clouds.2 mph94%29.80 "HgN/A
3:30 AM75 °FPassing clouds.3 mph94%29.80 "HgN/A
3:00 AM75 °FPassing clouds.No wind94%29.80 "HgN/A
2:30 AM75 °FPartly cloudy.1 mph94%29.80 "HgN/A
2:00 AM75 °FPartly cloudy.No wind94%29.80 "HgN/A
1:30 AM75 °FPartly cloudy.1 mph94%29.80 "HgN/A
1:00 AM77 °FPartly cloudy.2 mph89%29.83 "HgN/A
12:30 AM77 °FPartly cloudy.5 mph89%29.83 "HgN/A
12:00 AM77 °FPartly cloudy.1 mph89%29.83 "HgN/A
11:30 PM
Tue, May 24
77 °FPartly cloudy.3 mph89%29.83 "HgN/A
11:00 PM77 °FPartly cloudy.5 mph89%29.86 "HgN/A
10:30 PM77 °FPartly cloudy.7 mph89%29.86 "HgN/A
10:00 PM77 °FPartly cloudy.6 mph89%29.86 "HgN/A
9:30 PM77 °FPartly cloudy.6 mph89%29.86 "HgN/A
9:00 PM77 °FPartly cloudy.3 mph94%29.83 "HgN/A
8:30 PM77 °FPartly cloudy.2 mph94%29.83 "HgN/A
8:00 PM77 °FPartly cloudy.1 mph94%29.83 "HgN/A
7:30 PM77 °FLight rain. Partly cloudy.6 mph94%29.83 "HgN/A
7:00 PM77 °FThunderstorms. Partly cloudy.5 mph89%29.80 "HgN/A
6:30 PM75 °FThunderstorms. Broken clouds.5 mph94%29.80 "HgN/A
6:00 PM75 °FThunderstorms. Broken clouds.7 mph94%29.80 "HgN/A
5:30 PM75 °FThunderstorms. Broken clouds.10 mph94%29.80 "Hg2 mi
5:00 PM77 °FThunderstorms. Broken clouds.9 mph89%29.83 "Hg1 mi
4:30 PM77 °FStrong thunderstorms. Broken clouds.12 mph94%29.80 "Hg0 mi
4:00 PM84 °FThunderstorms. Broken clouds.9 mph79%29.74 "Hg2 mi
3:30 PM93 °FBroken clouds.2 mph59%29.74 "HgN/A
3:00 PM93 °FBroken clouds.6 mph56%29.74 "HgN/A
2:30 PM93 °FBroken clouds.7 mph56%29.77 "HgN/A
2:00 PM93 °FBroken clouds.3 mph59%29.77 "HgN/A
1:30 PM93 °FBroken clouds.7 mph56%29.80 "HgN/A
1:00 PM93 °FBroken clouds.8 mph56%29.80 "HgN/A
Weather by CustomWeather, © 2016

See weather overviewHow to use our weather pages